Location: Andria
(41.2170°N, 16.2830°E)
Time: 22:46:10
(UTC+01:00)

ISS - Visible Passes

Search period start: 18 January 2019 00:00
Search period end: 28 January 2019 00:00
Orbit: 404 x 410 km, 51.6° (Epoch: 18 January)

Date Brightness Start Highest point End Pass type
(mag) Time Alt. Az. Time Alt. Az. Time Alt. Az.
21 Jan -2.6 18:43:48 10° SSW 18:46:01 31° S 18:46:01 31° S visible
22 Jan -2.1 17:53:08 10° S 17:55:38 20° SE 17:57:08 15° E visible
22 Jan -1.0 19:28:46 10° WSW 19:29:52 19° W 19:29:52 19° W visible
23 Jan -3.9 18:37:14 10° SW 18:40:32 83° NW 18:40:53 69° NE visible
24 Jan -3.5 17:45:58 10° SW 17:49:10 51° SE 17:51:48 14° ENE visible
24 Jan -1.2 19:23:03 10° W 19:24:32 19° WNW 19:24:32 19° WNW visible
25 Jan -2.7 18:31:12 10° W 18:34:18 37° NNW 18:35:23 28° NNE visible
26 Jan -3.5 17:39:33 10° WSW 17:42:49 63° NNW 17:46:06 10° NE visible
26 Jan -1.1 19:17:32 10° WNW 19:18:52 16° NW 19:18:52 16° NW visible
27 Jan -1.9 18:25:31 10° WNW 18:28:11 22° NNW 18:29:36 17° NNE visible
